Location: Casa Rossa
(45.2389°N, 12.2056°E)
Time: 02:49:45
(UTC+00:00)

BREEZE-M DEB (TANK) - Pass Details

Date: 14 July 2020
Orbit: 428 x 13238 km, 46.0° (Epoch: 10 August)

Event Time Altitude Azimuth Distance (km) Brightness Sun altitude
Rises 00:06:21 0° 257° (WSW) 6,849 8.1 -22.2°
Reaches altitude 10° 00:12:31 10° 259° (WSW) 4,301 7.1 -21.9°
Maximum altitude 00:21:08 89° 340° (NNW) 764 3.4 -21.6°
Drops below altitude 10° 00:24:30 10° 80° (E) 1,739 5.7 -21.4°
Sets 00:26:00 0° 81° (E) 2,465 6.5 -21.3°
